Flag for U.S.A. Weather past 2 weeks in Arden-Arcade, California, U.S.A.

Now
61 °F

Overcast.


Feels Like: 61 °F
Forecast: 54 / 61 °F
Wind: 6 mph from Southeast

Location: Mather Field

Current Time: Dec 21, 2014 at 12:26:55 PM

Latest Report: Dec 21, 2014 at 11:45 AM


Visibility: 10 mi

Pressure: 30.28 "Hg

Humidity: 100%

Dew point: 61 °F

Location of Arden-ArcadeLocation

Historic Weather in Arden-Arcade — Graph

°F

Arden-Arcade temperature yesterday

Maximum temperature yesterday: 57 °F (at 1:45 PM)
Minimum temperature yesterday: 50 °F (at 4:45 AM)
Average temperature yesterday: 54 °F

Past Weeks' High & Low Weather Summary

 TemperatureHumidityPressure
High66 °F (Dec 6, 11:45 AM)100% (Dec 6, 10:45 AM)30.30 "Hg (Dec 6, 10:45 AM)
Low41 °F (Dec 14, 4:48 AM)59% (Dec 8, 1:45 PM)29.55 "Hg (Dec 11, 6:45 AM)
Average52 °F96%30.06 "Hg
* Reported Dec 6 10:45 AM — Dec 21 10:45 AM, Arden-Arcade, Weather by CustomWeather, © 2014

Note: Actual official high and low records may vary slightly from our data, if they occured in-between our weather recording intervals... More about our weather records

Advertising

Arden-Arcade weather history for previous 24 hours

 ConditionsComfort  
Time TempWeatherWind HumidityBarometerVisibility
10:45 AM
Dec 21
59 °FOvercast.8 mph100%30.30 "Hg10 mi
9:48 AM57 °FLow clouds.9 mph100%30.30 "Hg10 mi
8:45 AM57 °FLow clouds.8 mph100%30.29 "Hg10 mi
7:45 AM55 °FOvercast.8 mph100%30.27 "Hg10 mi
6:45 AM55 °FOvercast.9 mph100%30.26 "Hg10 mi
5:55 AM55 °FLow clouds.8 mph100%30.26 "Hg10 mi
4:45 AM55 °FOvercast.7 mph100%30.26 "Hg10 mi
10:46 PM
Dec 20
55 °FOvercast.6 mph100%30.26 "Hg10 mi
9:46 PM54 °FOvercast.7 mph100%30.26 "Hg10 mi
8:46 PM54 °FOvercast.5 mph100%30.26 "Hg10 mi
7:46 PM55 °FOvercast.6 mph100%30.24 "Hg10 mi
6:46 PM55 °FOvercast.3 mph100%30.24 "Hg10 mi
5:46 PM55 °FOvercast.3 mph100%30.22 "Hg10 mi
4:45 PM55 °FMostly cloudy.5 mph100%30.22 "Hg10 mi
2:45 PM57 °FMostly cloudy.9 mph100%30.20 "Hg10 mi
1:45 PM57 °FOvercast.8 mph100%30.21 "Hg10 mi
12:50 PM55 °FOvercast.8 mph100%30.20 "Hg10 mi
Weather by CustomWeather, © 2014

See weather overviewHow to use our weather pages